Back to catalog

STARLINK-37848

AliveCommunicationsVLEO
NORAD 100049·PAYLOAD·🇺🇸 United States

Launched Jul 14, 2026 from Cape Canaveral Space Force Station

Loading…

Next Passes (next 24 hours)

TLE

FreshSource: Space-Track

Epoch: Sep 14, 2026, 08:07 UTC

1 A0049U 26161X   26257.33870920 -.00034005  00000-0 -99778-3 0  9990
2 A0049  53.1610  26.5701 0001382  90.6400 269.4761 15.34463442  9667

Track STARLINK-37848 in real time with AllMySat

Download on the App Store